Home   Weather   Hiroshima   Past weeks

Flag for Japan Past Weather in Hiroshima, Japan — Yesterday and Last 2 Weeks

Now
48 °F

Passing clouds.


Feels Like: 44 °F
Forecast: 37 / 55 °F
Wind: 8 mph from Northwest

Location: Iwakuni Marine Corps Air Station

Current Time: Dec 10, 2016 at 8:01:15 pm

Latest Report: Dec 10, 2016 at 6:55 pm


Visibility: N/A

Pressure: 30.15 "Hg

Humidity: 68%

Dew Point: 38 °F

Location of HiroshimaLocation

Past Weather in Hiroshima — Graph

°F

Hiroshima Temperature Yesterday

Maximum temperature yesterday: 62 °F (at 12:55 pm)
Minimum temperature yesterday: 45 °F (at 10:55 pm)
Average temperature yesterday: 51 °F

High & Low Weather Summary for the Past Weeks

 TemperatureHumidityPressure
High65 °F (Dec 5, 1:55 pm)86% (Dec 4, 1:55 pm)30.46 "Hg (Dec 4, 1:55 pm)
Low40 °F (Nov 26, 5:55 am)31% (Dec 6, 11:55 am)29.92 "Hg (Dec 9, 1:55 pm)
Average52 °F62%30.17 "Hg
* Reported Nov 25 6:55 pm — Dec 10 6:55 pm, Hiroshima, Weather by CustomWeather, © 2016

Note: Actual official high and low records may vary slightly from our data, if they occured in-between our weather recording intervals... More about our weather records

Advertising

Hiroshima Weather History for the Previous 24 Hours

Scroll right to see more
 ConditionsComfort  
Time TempWeatherWind HumidityBarometerVisibility
6:55 pm
Sat, Dec 10
48 °FPassing clouds.8 mph68%30.15 "HgN/A
5:55 pm50 °FPassing clouds.7 mph61%30.14 "HgN/A
4:55 pm52 °FBroken clouds.3 mph53%30.12 "HgN/A
3:55 pm54 °FPartly sunny.No wind45%30.11 "HgN/A
2:55 pm54 °FBroken clouds.No wind51%30.10 "HgN/A
1:55 pm56 °FPartly sunny.3 mph46%30.10 "HgN/A
12:55 pm55 °FScattered clouds.6 mph47%30.12 "HgN/A
11:55 am55 °FScattered clouds.5 mph47%30.14 "HgN/A
10:55 am54 °FScattered clouds.5 mph53%30.16 "HgN/A
9:55 am52 °FPassing clouds.3 mph53%30.18 "HgN/A
8:55 am47 °FPassing clouds.5 mph64%30.16 "HgN/A
7:55 am44 °FScattered clouds.7 mph65%30.16 "HgN/A
6:55 am43 °FPassing clouds.9 mph62%30.14 "HgN/A
5:55 am42 °FPassing clouds.9 mph68%30.11 "HgN/A
4:55 am42 °FPassing clouds.8 mph65%30.10 "HgN/A
3:55 am43 °FPassing clouds.8 mph65%30.10 "HgN/A
2:55 am43 °FPassing clouds.8 mph65%30.10 "HgN/A
1:55 am44 °FPassing clouds.8 mph63%30.09 "HgN/A
12:55 am44 °FPassing clouds.7 mph65%30.09 "HgN/A
11:55 pm
Fri, Dec 9
45 °FPassing clouds.8 mph63%30.09 "HgN/A
10:55 pm45 °FPassing clouds.7 mph65%30.08 "HgN/A
9:55 pm47 °FPassing clouds.6 mph61%30.07 "HgN/A
8:55 pm49 °FPassing clouds.No wind57%30.06 "HgN/A
Weather by CustomWeather, © 2016

See weather overviewHow to use our weather pages